[[{"header":{"parameterUnit":"m.s-1","parameterCategory":2,"la1":30.2991,"la2":30.254,"lo1":-89.0895,"lo2":-89.0444,"dy":0.0017,"dx":0.0017,"nx":28,"ny":28,"refTime":"2023-07-21T09:00:00:Z","depth":"0","parameterNumber":2,"parameterNumberName":"U-component_of_CURRENTS"},"data":[0,0,0,0,0,0,0,0,0,0,0,0,0,0,0,0,0,0,0,0,0,0,0,0,0,0,0,0,0,0,0,0,0,0,0,0,0,0,0,0,0,0,0,0,0,0,0,0,0,0,0,0,0,0,0,0,0,0,0.2433,0.2432,0,0.2507,0.2509,0.2511,0.2519,0.2517,0.2515,0.2513,0.2447,0.2447,0.2447,0,0,0,0,0,0,0,0,0,0,0,0,0,0.2316,0.232,0.2433,0.2432,0.2432,0.2506,0.2509,0.2511,0.2519,0.2517,0.2514,0.2512,0.2447,0.2447,0.2447,0,0,0,0,0,0,0,0,0,0,0,0,0,0.2389,0.2321,0.2433,0.2435,0.2435,0.2506,0.2509,0.2512,0.2519,0.2517,0.2514,0.2511,0.2447,0.2447,0.2447,0.2507,0,0,0.2447,0.2447,0,0,0,0,0,0,0,0,0.2385,0.2395,0.2435,0.2435,0.2435,0.2489,0.2443,0.2498,0.252,0.2502,0.2513,0.2509,0.2441,0.2442,0.2483,0.2504,0.2501,0.2447,0.2447,0.2447,0.2448,0,0,0,0,0,0,0,0.238,0.2392,0.2476,0.2435,0.2435,0.2438,0.2446,0.2455,0.2495,0.2503,0.25,0.2489,0.2442,0.2483,0.2481,0.25,0.2447,0.2447,0.2448,0.2448,0.242,0.2419,0,0,0,0,0,0,0.2347,0.2388,0.2473,0.2476,0.2387,0.2441,0.2451,0.2485,0.2498,0.2494,0.2491,0.2488,0.2485,0.2481,0.2478,0.2444,0.2447,0.2448,0.2448,0.2421,0.242,0.2419,0,0,0,0,0,0,0.2345,0.2356,0.247,0.242,0.2432,0.2445,0.2484,0.2488,0.252,0.2488,0.2483,0.2514,0.2482,0.2478,0.2412,0.2444,0.2448,0.2448,0.2422,0.2421,0.242,0.2442,0,0,0,0,0,0,0.2343,0.2357,0.2398,0.2419,0.2433,0.2485,0.2485,0.2491,0.2511,0.2509,0.2507,0.2499,0.248,0.2411,0.2412,0.2445,0.2448,0.2423,0.2421,0.242,0.2442,0.2441,0.2441,0,0,0,0,0,0.2339,0.2393,0.2401,0.2411,0.2483,0.2483,0.2493,0.2499,0.2514,0.2523,0.2478,0.2498,0.2404,0.2409,0.241,0.2445,0.2424,0.2422,0.242,0.2442,0.2441,0.2441,0,0,0,0,0,0,0.2342,0.2398,0.2407,0.2471,0.2461,0.2478,0.2496,0.2509,0.2501,0.2487,0.2473,0.246,0.24,0.2419,0.2426,0.2428,0.2426,0.2424,0.2443,0.2442,0.2441,0.2425,0.2448,0,0,0,0,0,0.2367,0.2441,0.2441,0.2488,0.2482,0.2498,0.2512,0.2504,0.2485,0.2485,0.2482,0.246,0.2407,0.2414,0.2366,0.2393,0.2393,0.2418,0.2417,0.2417,0.2402,0.239,0.2387,0.2413,0.2413,0.2413,0,0,0.2372,0.2418,0.2454,0.2496,0.25,0.2491,0.2502,0.2501,0.2505,0.2474,0.2486,0.2433,0.2394,0.2372,0.2361,0.2396,0.2418,0.2415,0.2415,0.2399,0.2388,0.2385,0.2383,0.2412,0.2412,0.2412,0,0,0.2371,0.2459,0.2481,0.2488,0.2481,0.2498,0.2493,0.2503,0.2517,0.2511,0.2454,0.2408,0.2415,0.2371,0.2353,0.2335,0.2373,0.235,0.2392,0.2381,0.2379,0.2377,0.2416,0.2417,0.2403,0.2403,0.2403,0,0.2351,0.242,0.2476,0.2471,0.2484,0.2496,0.248,0.2504,0.2494,0.2486,0.2502,0.242,0.2413,0.2334,0.2339,0.2338,0.2349,0.2402,0.2382,0.238,0.2378,0.2417,0.2418,0.2404,0.2404,0.2404,0.2404,0,0.2343,0.2395,0.2401,0.2431,0.2446,0.2447,0.2453,0.2474,0.2513,0.2512,0.2446,0.2409,0.237,0.2377,0.2369,0.2342,0.2361,0.2344,0.239,0.2377,0.2419,0.242,0.2405,0.2405,0.2405,0.2405,0,0,0.2286,0.2379,0.2382,0.2392,0.2439,0.2433,0.2458,0.246,0.2453,0.2458,0.244,0.2385,0.2368,0.2342,0.2318,0.2339,0.2378,0.2368,0.2368,0.2418,0.2393,0.2401,0.2403,0.2362,0.2361,0.2361,0.2445,0,0.2246,0.2268,0.2337,0.2344,0.2344,0.2399,0.2418,0.2419,0.2446,0.2436,0.2393,0.2348,0.2356,0.2342,0.2353,0.2327,0.2373,0.2358,0.2386,0.2388,0.2404,0.24,0.2291,0.2354,0.2446,0.2446,0.2446,0,0.2192,0.224,0.2247,0.2316,0.2316,0.2321,0.2363,0.2379,0.2366,0.2387,0.2342,0.2309,0.2289,0.232,0.2312,0.2304,0.2365,0.2374,0.2378,0.2368,0.2394,0.2371,0.2352,0.2344,0.2447,0.2447,0.2447,0,0.2118,0.2171,0.2199,0.2219,0.228,0.229,0.233,0.2339,0.2354,0.2345,0.2351,0.2287,0.2296,0.2294,0.2361,0.2344,0.2379,0.2358,0.2416,0.242,0.232,0.2315,0.2295,0.2381,0.2381,0.2381,0.2381,0,0.2075,0.207,0.2159,0.2169,0.2179,0.2235,0.2233,0.2271,0.2292,0.2279,0.2307,0.2293,0.2298,0.2323,0.2354,0.2398,0.2389,0.2411,0.2427,0.233,0.2325,0.2306,0.2293,0.2384,0.2383,0.2383,0.2382,0,0.1951,0.2023,0.2029,0.2115,0.2137,0.2131,0.2205,0.2192,0.2252,0.2246,0.2253,0.2317,0.2363,0.238,0.242,0.2421,0.2376,0.2477,0.2392,0.2394,0.2387,0.2379,0.2249,0.2162,0.2508,0.2508,0.2509,0,0.1899,0.1888,0.1973,0.1981,0.2012,0.2038,0.2051,0.215,0.2158,0.2248,0.2234,0.2319,0.2343,0.2419,0.2452,0.2496,0.2429,0.2429,0.2355,0.237,0.2372,0.2269,0.2195,0.2257,0.2256,0.2254,0.2253,0,0.177,0.1784,0.1807,0.1843,0.1863,0.1899,0.1944,0.1958,0.2061,0.2089,0.2139,0.2174,0.2312,0.2319,0.2434,0.2433,0.2288,0.2402,0.2407,0.216,0.2049,0.198,0.2271,0.2241,0.2242,0.2243,0.2244,0.2244,0.1653,0.1628,0.166,0.1684,0.1702,0.1728,0.1726,0.1788,0.1817,0.1847,0.1978,0.2008,0.2155,0.2295,0.2301,0.2297,0.2267,0.2224,0.2217,0.2117,0.1989,0.2287,0.2276,0.2278,0.2279,0.228,0.2281,0,0.1516,0.1499,0.1506,0.1526,0.1495,0.1575,0.1616,0.1599,0.1594,0.1695,0.1732,0.1845,0.1923,0.2042,0.2142,0.2111,0.1975,0.2076,0.1889,0.1828,0.2093,0.2041,0.1989,0.1989,0.1989,0.1989,0.1989,0.1989,0.1428,0.137,0.1393,0.1324,0.133,0.1278,0.1288,0.1291,0.1349,0.1387,0.1455,0.1563,0.1808,0.1953,0.1978,0.1941,0.183,0.1773,0.1778,0.1991,0.2004,0.2016,0.1964,0.1897,0.1897,0.1392,0.1389,0.1387]},{"header":{"parameterUnit":"m.s-1","parameterCategory":2,"la1":30.2991,"la2":30.254,"lo1":-89.0895,"lo2":-89.0444,"dy":0.0017,"dx":0.0017,"nx":28,"ny":28,"refTime":"2023-07-21T09:00:00:Z","depth":"0","parameterNumber":3,"parameterNumberName":"V-component_of_CURRENTS"},"data":[0,0,0,0,0,0,0,0,0,0,0,0,0,0,0,0,0,0,0,0,0,0,0,0,0,0,0,0,0,0,0,0,0,0,0,0,0,0,0,0,0,0,0,0,0,0,0,0,0,0,0,0,0,0,0,0,0,0,-0.0277,-0.0276,0,-0.0262,-0.0263,-0.0263,-0.0287,-0.0287,-0.0287,-0.0287,-0.0239,-0.0238,-0.0237,0,0,0,0,0,0,0,0,0,0,0,0,0,-0.0311,-0.0311,-0.0277,-0.0276,-0.0275,-0.0262,-0.0263,-0.0263,-0.0287,-0.0287,-0.0287,-0.0288,-0.024,-0.0238,-0.0236,0,0,0,0,0,0,0,0,0,0,0,0,0,-0.0303,-0.0311,-0.0277,-0.028,-0.028,-0.0262,-0.0263,-0.0263,-0.0287,-0.0287,-0.0287,-0.0288,-0.024,-0.0238,-0.0236,-0.0217,0,0,-0.0229,-0.0228,0,0,0,0,0,0,0,0,-0.0303,-0.0303,-0.0281,-0.028,-0.028,-0.0271,-0.0257,-0.0244,-0.0287,-0.0291,-0.0287,-0.0288,-0.0242,-0.024,-0.0247,-0.0214,-0.0212,-0.0229,-0.0228,-0.0227,-0.0226,0,0,0,0,0,0,0,-0.0304,-0.0303,-0.0278,-0.028,-0.0279,-0.0278,-0.0278,-0.0255,-0.027,-0.0291,-0.0291,-0.0279,-0.0243,-0.0249,-0.0245,-0.0211,-0.0229,-0.0227,-0.0226,-0.0225,-0.0117,-0.0115,0,0,0,0,0,0,-0.0293,-0.0304,-0.0278,-0.0277,-0.0285,-0.0276,-0.0277,-0.0279,-0.0271,-0.0268,-0.0278,-0.028,-0.0252,-0.0248,-0.0244,-0.0199,-0.0227,-0.0225,-0.0224,-0.0118,-0.0116,-0.0115,0,0,0,0,0,0,-0.0294,-0.0291,-0.0278,-0.0284,-0.0281,-0.0275,-0.0277,-0.0278,-0.027,-0.026,-0.0259,-0.0267,-0.0252,-0.0247,-0.0226,-0.0198,-0.0224,-0.0222,-0.012,-0.0118,-0.0115,-0.0122,0,0,0,0,0,0,-0.0295,-0.0292,-0.0287,-0.0283,-0.028,-0.0255,-0.0276,-0.0277,-0.0259,-0.0261,-0.0249,-0.0247,-0.0252,-0.0229,-0.0224,-0.0195,-0.022,-0.0122,-0.0119,-0.0116,-0.0124,-0.012,-0.0117,0,0,0,0,0,-0.0297,-0.0284,-0.0287,-0.0283,-0.0275,-0.0254,-0.0253,-0.0254,-0.0258,-0.0249,-0.0254,-0.0246,-0.0206,-0.0227,-0.0221,-0.0191,-0.0123,-0.012,-0.0116,-0.0125,-0.0121,-0.0117,0,0,0,0,0,0,-0.0285,-0.0284,-0.0288,-0.0274,-0.0258,-0.0255,-0.0243,-0.0241,-0.0238,-0.0246,-0.024,-0.0237,-0.0208,-0.0191,-0.0215,-0.0147,-0.0157,-0.0152,-0.0165,-0.0161,-0.0158,-0.0135,-0.0218,0,0,0,0,0,-0.0281,-0.0282,-0.0269,-0.0256,-0.0249,-0.0244,-0.0233,-0.0237,-0.0232,-0.0231,-0.022,-0.0205,-0.0188,-0.0171,-0.0158,-0.0121,-0.0123,-0.009,-0.0087,-0.0084,-0.0058,-0.0084,-0.0082,-0.0103,-0.0103,-0.0103,0,0,-0.0281,-0.027,-0.0276,-0.0255,-0.0249,-0.0234,-0.024,-0.0226,-0.0207,-0.0224,-0.0197,-0.0198,-0.0178,-0.0152,-0.0133,-0.0133,-0.0075,-0.008,-0.0078,-0.0053,-0.008,-0.0079,-0.0077,-0.0101,-0.0101,-0.0101,0,0,-0.0263,-0.0263,-0.0256,-0.024,-0.0219,-0.022,-0.0208,-0.0198,-0.0188,-0.0167,-0.0175,-0.0158,-0.0125,-0.0111,-0.0097,-0.0056,-0.0065,-0.0043,-0.0,-0.0027,-0.0026,-0.0026,-0.0018,-0.0017,-0.0033,-0.0033,-0.0033,0,-0.0252,-0.0241,-0.0246,-0.0219,-0.02,-0.0208,-0.0185,-0.0175,-0.0159,-0.0133,-0.0155,-0.011,-0.0102,-0.0057,-0.0048,-0.0048,-0.0061,-0.0028,-0.0026,-0.0026,-0.0025,-0.0018,-0.0016,-0.0033,-0.0033,-0.0033,-0.0033,0,-0.0234,-0.0212,-0.0199,-0.0181,-0.0164,-0.0145,-0.0131,-0.0111,-0.0105,-0.0089,-0.0048,-0.0057,-0.0021,-0.0018,-0.0022,0.0008,-0.0002,-0.0035,-0.0047,-0.0024,-0.0016,-0.0015,-0.0033,-0.0033,-0.0033,-0.0033,0,0,-0.0242,-0.0197,-0.0193,-0.0163,-0.0142,-0.0123,-0.0089,-0.0047,-0.0011,-0.0006,0.0044,0.0061,0.0057,0.0074,0.0066,0.0052,0.0041,0.0017,0.0015,0.0009,-0.0001,-0.0017,-0.0016,-0.0016,-0.0015,-0.0015,0.0003,0,-0.0221,-0.0166,-0.0154,-0.0104,-0.0073,-0.0058,-0.002,0.0015,0.0035,0.0077,0.0086,0.0115,0.0093,0.0097,0.0082,0.0043,0.0044,0.0041,-0.0006,-0.0005,-0.0038,-0.0016,0.0045,0.0064,0.0005,0.0005,0.0005,0,-0.0203,-0.0168,-0.0118,-0.0044,-0.0031,-0.0006,0.0054,0.0088,0.0143,0.016,0.0187,0.0186,0.02,0.0152,0.0117,0.0106,0.0074,0.0037,0.0035,0.003,-0.0018,0.0034,0.0069,0.0024,0.0007,0.0007,0.0007,0,-0.02,-0.0131,-0.0089,-0.0069,-0.0007,0.003,0.0064,0.0119,0.0167,0.021,0.0235,0.0242,0.0237,0.0187,0.0133,0.0114,0.0074,0.0034,0.0006,0.0005,0.0058,0.0061,0.0035,0.0022,0.0022,0.0022,0.0022,0,-0.0169,-0.0126,-0.0081,-0.0058,0.0006,0.0044,0.0116,0.0153,0.0213,0.0278,0.0276,0.0312,0.0235,0.0211,0.0154,0.0091,0.0092,0.0034,0.0007,0.006,0.0063,0.0027,-0.0022,0.0023,0.0022,0.0022,0.0022,0,-0.0141,-0.0126,-0.0064,-0.0007,0.0013,0.0062,0.0152,0.0204,0.0247,0.0324,0.0339,0.0357,0.0319,0.0255,0.0175,0.0118,0.0038,0.004,0.0125,0.0107,0.0022,-0.0028,-0.0098,-0.0075,0.0013,0.0013,0.0013,0,-0.0123,-0.0091,-0.0029,-0.0005,0.0028,0.0098,0.0147,0.0212,0.0273,0.0363,0.0403,0.0398,0.043,0.0316,0.02,0.0111,0.0052,0.0096,0.0073,0.0044,-0.0032,-0.0093,-0.0071,0.0154,0.0154,0.0155,0.0156,0,-0.0076,-0.0053,-0.0009,0.0044,0.0087,0.016,0.0241,0.0291,0.0373,0.0439,0.0526,0.0561,0.0476,0.0418,0.0275,0.0205,0.0073,0.0106,0.0052,0.0066,0.0024,0.0026,0.0131,0.0163,0.0162,0.0161,0.0161,0.0161,-0.005,-0.0001,0.0048,0.0109,0.0159,0.0237,0.0309,0.0384,0.0485,0.0612,0.0625,0.0722,0.063,0.0449,0.0318,0.0139,0.0105,0.011,0.0053,-0.0005,0.0009,0.0139,0.0139,0.0139,0.0138,0.0137,0.0137,0,-0.002,0.0044,0.0111,0.0184,0.0264,0.0281,0.0386,0.0462,0.058,0.07,0.0792,0.088,0.0729,0.0555,0.0294,0.0139,0.0087,0.0057,0.0011,0.0039,0.0152,0.0151,0.0183,0.0183,0.0183,0.0183,0.0183,0.0183,0.0002,0.0079,0.0133,0.0267,0.0327,0.044,0.0504,0.0595,0.0708,0.0901,0.1039,0.1135,0.1124,0.0531,0.0196,0.0091,-0.002,-0.008,-0.0125,-0.0033,-0.0031,-0.003,-0.004,-0.0049,-0.005,-0.0162,-0.0164,-0.0165]}],[{"header":{"parameterUnit":"m.s-1","parameterCategory":2,"la1":30.2991,"la2":30.254,"lo1":-89.0895,"lo2":-89.0444,"dy":0.0017,"dx":0.0017,"nx":28,"ny":28,"refTime":"2023-07-21T09:00:00:Z","depth":"2","parameterNumber":2,"parameterNumberName":"U-component_of_CURRENTS"},"data":[0,0,0,0,0,0,0,0,0,0,0,0,0,0,0,0,0,0,0,0,0,0,0,0,0,0,0,0,0,0,0,0,0,0,0,0,0,0,0,0,0,0,0,0,0,0,0,0,0,0,0,0,0,0,0,0,0,0,0.1534,0.1528,0,0.1127,0.1124,0.1121,0.122,0.1226,0.1232,0.1237,0.1649,0.1654,0.166,0,0,0,0,0,0,0,0,0,0,0,0,0,0.1598,0.1603,0.1535,0.1527,0.152,0.1127,0.1124,0.1121,0.1219,0.1226,0.1233,0.1239,0.1647,0.1654,0.1661,0,0,0,0,0,0,0,0,0,0,0,0,0,0.1444,0.1605,0.1536,0.1503,0.1494,0.1128,0.1124,0.112,0.1218,0.1226,0.1235,0.1243,0.1645,0.1653,0.1662,0.1548,0,0,0.1688,0.1692,0,0,0,0,0,0,0,0,0.1454,0.1446,0.1515,0.1504,0.1494,0.1211,0.1294,0.1295,0.1216,0.135,0.1237,0.1247,0.1556,0.1572,0.1501,0.1567,0.1585,0.1689,0.1694,0.1698,0.17,0,0,0,0,0,0,0,0.1466,0.1458,0.1399,0.1506,0.1492,0.1231,0.123,0.129,0.1446,0.1339,0.1339,0.125,0.1561,0.1491,0.1514,0.1591,0.1689,0.1696,0.1702,0.1705,0.177,0.1767,0,0,0,0,0,0,0.1499,0.1474,0.1412,0.1384,0.1465,0.1225,0.1223,0.1314,0.1427,0.1438,0.1243,0.1255,0.1473,0.1503,0.153,0.1749,0.1698,0.1706,0.1711,0.1774,0.177,0.1766,0,0,0,0,0,0,0.1505,0.1505,0.1428,0.1386,0.1356,0.1219,0.1316,0.1301,0.1226,0.134,0.1376,0.1182,0.1481,0.1518,0.1649,0.1756,0.171,0.1718,0.1778,0.1773,0.1768,0.197,0,0,0,0,0,0,0.1512,0.1514,0.148,0.1397,0.1359,0.1262,0.1304,0.1286,0.1146,0.116,0.1299,0.1344,0.149,0.1635,0.1657,0.1767,0.1724,0.1782,0.1776,0.1769,0.1968,0.1973,0.1977,0,0,0,0,0,0.1519,0.1462,0.1487,0.1468,0.1365,0.1257,0.1218,0.1153,0.1134,0.1116,0.1233,0.134,0.1608,0.164,0.1667,0.1782,0.1785,0.1777,0.177,0.1966,0.1972,0.1977,0,0,0,0,0,0,0.143,0.146,0.1489,0.144,0.1375,0.1267,0.1223,0.1101,0.1136,0.1223,0.1317,0.1372,0.1504,0.1544,0.1573,0.1748,0.1701,0.1698,0.184,0.1846,0.1851,0.1845,0.1732,0,0,0,0,0,0.14,0.1476,0.139,0.1389,0.1397,0.1291,0.1189,0.1161,0.118,0.1194,0.1328,0.1428,0.1465,0.1587,0.1649,0.1766,0.1727,0.1826,0.1831,0.1836,0.1829,0.175,0.175,0.174,0.174,0.1741,0,0,0.1371,0.1396,0.1427,0.138,0.1404,0.1357,0.1275,0.1225,0.1172,0.1249,0.1379,0.1444,0.1467,0.1629,0.1691,0.172,0.1832,0.1826,0.1834,0.1822,0.1742,0.1745,0.1747,0.1735,0.1736,0.1737,0,0,0.134,0.144,0.1454,0.1472,0.144,0.1377,0.1348,0.1315,0.1329,0.1348,0.1403,0.1517,0.162,0.1721,0.1734,0.175,0.1803,0.1772,0.19,0.1826,0.1829,0.1831,0.1882,0.1887,0.1846,0.1847,0.1847,0,0.1264,0.1359,0.1407,0.1445,0.1468,0.1403,0.1397,0.1339,0.1338,0.1404,0.1449,0.1526,0.1642,0.1694,0.1793,0.1783,0.1774,0.1924,0.1845,0.1845,0.1843,0.1894,0.1896,0.1856,0.1855,0.1854,0.1853,0,0.1297,0.1342,0.1418,0.1519,0.1482,0.155,0.15,0.1524,0.153,0.1514,0.1594,0.1673,0.173,0.1789,0.185,0.1901,0.1912,0.1821,0.187,0.1859,0.1911,0.191,0.1868,0.1865,0.1862,0.186,0,0,0.1286,0.1395,0.1454,0.1482,0.1592,0.155,0.1592,0.1584,0.158,0.1648,0.1655,0.179,0.1848,0.1851,0.19,0.194,0.2039,0.1959,0.1951,0.208,0.1979,0.1946,0.1943,0.1952,0.1951,0.1949,0.2061,0,0.1334,0.1375,0.1449,0.15,0.1516,0.1613,0.1624,0.1626,0.1662,0.1697,0.1732,0.1776,0.1835,0.1903,0.193,0.1967,0.2027,0.2023,0.1904,0.1903,0.193,0.1934,0.1713,0.1785,0.206,0.206,0.2059,0,0.1343,0.1386,0.1436,0.1488,0.1537,0.1559,0.1659,0.1627,0.1688,0.1749,0.1798,0.1806,0.1902,0.1878,0.1924,0.1927,0.1989,0.2011,0.2011,0.1895,0.1862,0.1806,0.1772,0.2057,0.2057,0.2058,0.2058,0,0.1297,0.1359,0.14,0.1481,0.1525,0.1613,0.1638,0.1714,0.1748,0.1784,0.1852,0.1846,0.1893,0.1851,0.198,0.1961,0.1999,0.193,0.1941,0.1944,0.1681,0.1661,0.1917,0.1917,0.1916,0.1916,0.1916,0,0.1306,0.1352,0.1384,0.1496,0.1532,0.1562,0.1639,0.17,0.1763,0.1825,0.1868,0.1893,0.1896,0.1935,0.1958,0.1976,0.196,0.1965,0.194,0.1752,0.1738,0.1871,0.1865,0.192,0.1919,0.1919,0.1918,0,0.1215,0.1283,0.1328,0.1469,0.1526,0.1535,0.1699,0.171,0.1798,0.1848,0.1885,0.2,0.2064,0.2061,0.208,0.2005,0.1979,0.1997,0.1859,0.1814,0.1994,0.1995,0.1971,0.197,0.1969,0.1968,0.1968,0,0.1196,0.1194,0.1369,0.1406,0.1516,0.1556,0.1627,0.1746,0.1778,0.1905,0.1935,0.2075,0.2109,0.2127,0.2029,0.198,0.2069,0.1785,0.1656,0.2006,0.1986,0.1988,0.199,0.1446,0.1441,0.1437,0.1434,0,0.116,0.1231,0.1271,0.1387,0.1487,0.152,0.1646,0.1691,0.1773,0.1836,0.1924,0.1965,0.2029,0.1884,0.1877,0.1805,0.1741,0.1705,0.2036,0.1461,0.1515,0.1495,0.1513,0.1399,0.1403,0.1405,0.1407,0.1409,0.1151,0.1151,0.1242,0.13,0.1368,0.1455,0.1486,0.1561,0.1608,0.1636,0.1787,0.1755,0.1717,0.1565,0.1527,0.1502,0.1594,0.1464,0.1473,0.1487,0.14,0.1447,0.1312,0.1315,0.1318,0.132,0.1322,0,0.1088,0.1111,0.1173,0.1239,0.1242,0.136,0.1446,0.1405,0.14,0.1456,0.1478,0.1276,0.1198,0.1251,0.1123,0.1087,0.1048,0.1077,0.0996,0.1028,0.1057,0.0946,0.074,0.0739,0.0739,0.0738,0,0,0.1073,0.1065,0.1108,0.1102,0.1131,0.1131,0.1153,0.1126,0.1132,0.1063,0.1025,0.105,0.1112,0.0868,0.0836,0.0802,0.0921,0.0768,0.1213,0.1144,0.1173,0.1235,0.1095,0,0,0,0,0]},{"header":{"parameterUnit":"m.s-1","parameterCategory":2,"la1":30.2991,"la2":30.254,"lo1":-89.0895,"lo2":-89.0444,"dy":0.0017,"dx":0.0017,"nx":28,"ny":28,"refTime":"2023-07-21T09:00:00:Z","depth":"2","parameterNumber":3,"parameterNumberName":"V-component_of_CURRENTS"},"data":[0,0,0,0,0,0,0,0,0,0,0,0,0,0,0,0,0,0,0,0,0,0,0,0,0,0,0,0,0,0,0,0,0,0,0,0,0,0,0,0,0,0,0,0,0,0,0,0,0,0,0,0,0,0,0,0,0,0,-0.0235,-0.0232,0,-0.0188,-0.0189,-0.019,-0.0269,-0.0269,-0.027,-0.027,-0.0266,-0.0266,-0.0265,0,0,0,0,0,0,0,0,0,0,0,0,0,-0.0294,-0.0295,-0.0235,-0.0232,-0.0229,-0.0187,-0.0189,-0.0191,-0.0269,-0.0269,-0.027,-0.0271,-0.0266,-0.0266,-0.0265,0,0,0,0,0,0,0,0,0,0,0,0,0,-0.0282,-0.0295,-0.0235,-0.0246,-0.0245,-0.0187,-0.0189,-0.0191,-0.0268,-0.0269,-0.027,-0.0271,-0.0267,-0.0266,-0.0265,-0.0241,0,0,-0.0262,-0.0261,0,0,0,0,0,0,0,0,-0.0282,-0.0283,-0.0247,-0.0245,-0.0244,-0.0215,-0.0207,-0.0202,-0.0268,-0.0284,-0.027,-0.0271,-0.0237,-0.0239,-0.026,-0.0241,-0.0241,-0.0262,-0.0261,-0.0261,-0.026,0,0,0,0,0,0,0,-0.0283,-0.0284,-0.0239,-0.0244,-0.0241,-0.0218,-0.0221,-0.0208,-0.0275,-0.0282,-0.0282,-0.0241,-0.024,-0.0261,-0.026,-0.0241,-0.0262,-0.0261,-0.026,-0.026,-0.015,-0.0148,0,0,0,0,0,0,-0.0248,-0.0285,-0.024,-0.0236,-0.024,-0.0215,-0.0219,-0.0242,-0.0274,-0.0273,-0.024,-0.0244,-0.0262,-0.0261,-0.026,-0.023,-0.0261,-0.026,-0.0259,-0.0152,-0.0149,-0.0147,0,0,0,0,0,0,-0.025,-0.0247,-0.0242,-0.0237,-0.0232,-0.0212,-0.0237,-0.024,-0.0241,-0.0237,-0.0242,-0.0232,-0.0263,-0.0261,-0.0246,-0.023,-0.0259,-0.0258,-0.0155,-0.0151,-0.0148,-0.0171,0,0,0,0,0,0,-0.0254,-0.025,-0.0238,-0.0237,-0.023,-0.0195,-0.0234,-0.0238,-0.0203,-0.0209,-0.0231,-0.0233,-0.0263,-0.0247,-0.0245,-0.0229,-0.0258,-0.0158,-0.0153,-0.0149,-0.0173,-0.0169,-0.0165,0,0,0,0,0,-0.0257,-0.0246,-0.024,-0.0231,-0.0223,-0.0191,-0.0189,-0.0191,-0.0201,-0.0199,-0.022,-0.0232,-0.0217,-0.0246,-0.0243,-0.0227,-0.016,-0.0154,-0.0149,-0.0175,-0.017,-0.0165,0,0,0,0,0,0,-0.0237,-0.025,-0.0245,-0.023,-0.0196,-0.0196,-0.0179,-0.0169,-0.0186,-0.0212,-0.0217,-0.022,-0.0203,-0.019,-0.0221,-0.0173,-0.0183,-0.0177,-0.0203,-0.0197,-0.0193,-0.0169,-0.0257,0,0,0,0,0,-0.0225,-0.0258,-0.0219,-0.0208,-0.0193,-0.018,-0.0158,-0.0172,-0.0175,-0.0186,-0.0188,-0.0188,-0.0179,-0.017,-0.0171,-0.0142,-0.0144,-0.0118,-0.0114,-0.0111,-0.0084,-0.0105,-0.0103,-0.0129,-0.0129,-0.013,0,0,-0.0216,-0.0216,-0.0234,-0.0207,-0.0202,-0.0182,-0.0179,-0.0169,-0.0151,-0.0178,-0.0173,-0.018,-0.0166,-0.0159,-0.0144,-0.0147,-0.0101,-0.0104,-0.0103,-0.0076,-0.01,-0.0098,-0.0096,-0.0126,-0.0126,-0.0127,0,0,-0.0188,-0.0216,-0.0212,-0.0207,-0.0174,-0.0178,-0.016,-0.0154,-0.0152,-0.0135,-0.0153,-0.014,-0.0122,-0.0118,-0.0108,-0.006,-0.0085,-0.0051,-0.0011,-0.0034,-0.0034,-0.0033,-0.0035,-0.0034,-0.0043,-0.0043,-0.0043,0,-0.0153,-0.0166,-0.0191,-0.0175,-0.0158,-0.0169,-0.014,-0.0143,-0.013,-0.0104,-0.0134,-0.0097,-0.0099,-0.0057,-0.0054,-0.0054,-0.0069,-0.0049,-0.0035,-0.0034,-0.0034,-0.0035,-0.0034,-0.0044,-0.0043,-0.0043,-0.0043,0,-0.014,-0.013,-0.0131,-0.0142,-0.0121,-0.0126,-0.0109,-0.0103,-0.0102,-0.0083,-0.0044,-0.0062,-0.0025,-0.0027,-0.0033,-0.0003,-0.0018,-0.0044,-0.0065,-0.0033,-0.0036,-0.0035,-0.0044,-0.0044,-0.0044,-0.0044,0,0,-0.0133,-0.0119,-0.0127,-0.0099,-0.0123,-0.0102,-0.0087,-0.004,-0.001,-0.0015,0.004,0.0049,0.0048,0.0065,0.0057,0.0042,0.0021,0.0004,0.0003,-0.0024,-0.0024,-0.0026,-0.0025,-0.003,-0.0029,-0.0029,-0.0031,0,-0.0106,-0.0064,-0.0075,-0.004,-0.0011,-0.0036,-0.0008,0.0017,0.0031,0.0064,0.0071,0.01,0.0083,0.0084,0.0071,0.0027,0.0025,0.0026,-0.0023,-0.0022,-0.0053,-0.0023,-0.0009,-0.001,-0.003,-0.003,-0.003,0,-0.0087,-0.0068,-0.0022,0.0032,0.004,0.0047,0.0075,0.0107,0.014,0.0152,0.0177,0.0173,0.0184,0.0139,0.0104,0.0094,0.0057,0.0016,0.0014,0.0027,-0.0022,-0.0038,-0.0007,-0.0028,-0.0028,-0.0028,-0.0029,0,-0.0076,-0.0018,0.002,0.0013,0.0052,0.0074,0.0099,0.0134,0.0179,0.0209,0.0223,0.0231,0.0223,0.0173,0.0114,0.0095,0.005,0.0009,-0.0012,-0.0012,0.0006,0.0007,-0.0001,-0.0001,-0.0001,-0.0001,-0.0001,0,-0.0053,-0.0024,0.0025,0.0014,0.0071,0.0102,0.0158,0.018,0.0224,0.0285,0.0275,0.0305,0.0221,0.0192,0.0131,0.0072,0.0069,0.0017,-0.001,0.0002,0.0002,-0.0006,-0.0006,-0.0001,-0.0001,-0.0001,-0.0001,0,-0.0027,-0.0018,0.003,0.0062,0.0074,0.0118,0.0185,0.023,0.0265,0.033,0.034,0.0346,0.0307,0.0237,0.015,0.0099,0.0035,0.0021,0.0054,0.0032,-0.0014,-0.0015,-0.0005,-0.0005,-0.0005,-0.0005,-0.0005,0,-0.0019,0.0007,0.0046,0.0065,0.0076,0.0139,0.0171,0.0229,0.0288,0.037,0.0403,0.0391,0.0414,0.0296,0.0182,0.0089,0.006,0.0035,0.0013,0.0015,-0.0013,-0.0014,-0.0015,0.0029,0.0029,0.003,0.003,0,0.0002,0.0016,0.0053,0.0088,0.0116,0.0187,0.0251,0.0296,0.038,0.0438,0.052,0.0547,0.0458,0.0362,0.0222,0.0157,0.0044,0.0037,0.0025,0.0026,0.0046,0.0019,0.0017,0.0032,0.0031,0.0031,0.0031,0.0031,0.0004,0.0049,0.0088,0.0141,0.0184,0.0252,0.0314,0.0384,0.048,0.0583,0.0607,0.0646,0.0501,0.0334,0.0209,0.0075,0.0086,0.0024,0.0024,0.0023,0.0026,0.0045,0.0032,0.0032,0.0032,0.0032,0.0031,0,0.0017,0.0078,0.0134,0.02,0.0277,0.0286,0.0383,0.045,0.0561,0.0632,0.0712,0.0604,0.0508,0.0352,0.0169,0.0055,0.0042,0.0004,0.0008,0.0008,0.0007,0.0009,0.001,0.0009,0.0009,0.0008,0,0,0.0025,0.0097,0.0149,0.0274,0.033,0.043,0.0491,0.0559,0.0634,0.0707,0.0727,0.0723,0.0554,0.0385,0.0224,0.0129,0.0098,0.0108,0.0143,0.0169,0.017,0.0041,0.0046,0,0,0,0,0]}],[{"header":{"parameterUnit":"m.s-1","parameterCategory":2,"la1":30.2991,"la2":30.254,"lo1":-89.0895,"lo2":-89.0444,"dy":0.0017,"dx":0.0017,"nx":28,"ny":28,"refTime":"2023-07-21T09:00:00:Z","depth":"4","parameterNumber":2,"parameterNumberName":"U-component_of_CURRENTS"},"data":[0,0,0,0,0,0,0,0,0,0,0,0,0,0,0,0,0,0,0,0,0,0,0,0,0,0,0,0,0,0,0,0,0,0,0,0,0,0,0,0,0,0,0,0,0,0,0,0,0,0,0,0,0,0,0,0,0,0,-0.068,-0.068,0,-0.0636,-0.0635,-0.0635,-0.0668,-0.0669,-0.0671,-0.0673,-0.0854,-0.0857,-0.086,0,0,0,0,0,0,0,0,0,0,0,0,0,-0.0655,-0.0656,-0.068,-0.068,-0.068,-0.0636,-0.0635,-0.0634,-0.0667,-0.0669,-0.0672,-0.0674,-0.0853,-0.0857,-0.0861,0,0,0,0,0,0,0,0,0,0,0,0,0,-0.0641,-0.0656,-0.068,-0.0694,-0.0695,-0.0637,-0.0635,-0.0634,-0.0667,-0.0669,-0.0672,-0.0675,-0.0852,-0.0856,-0.0861,-0.0837,0,0,-0.0876,-0.0878,0,0,0,0,0,0,0,0,-0.0641,-0.0641,-0.0692,-0.0693,-0.0694,-0.0663,-0.0693,-0.0714,-0.0666,-0.0673,-0.0673,-0.0676,-0.0812,-0.082,-0.0797,-0.0845,-0.0853,-0.0876,-0.0879,-0.0881,-0.0882,0,0,0,0,0,0,0,-0.0643,-0.0642,-0.0659,-0.0692,-0.0693,-0.0655,-0.0657,-0.0695,-0.0729,-0.0673,-0.0676,-0.0676,-0.0814,-0.0792,-0.0802,-0.0856,-0.0876,-0.088,-0.0883,-0.0885,-0.1125,-0.1128,0,0,0,0,0,0,-0.066,-0.0644,-0.066,-0.0658,-0.0678,-0.0654,-0.0656,-0.0667,-0.0724,-0.0735,-0.0674,-0.0678,-0.0783,-0.0797,-0.0809,-0.0921,-0.0881,-0.0885,-0.0888,-0.1121,-0.1125,-0.1129,0,0,0,0,0,0,-0.066,-0.0662,-0.0662,-0.0652,-0.065,-0.0653,-0.0665,-0.0665,-0.0679,-0.0723,-0.0738,-0.0693,-0.0785,-0.0803,-0.0886,-0.0924,-0.0888,-0.0892,-0.1117,-0.1122,-0.1127,-0.1059,0,0,0,0,0,0,-0.0659,-0.0662,-0.0676,-0.0654,-0.0652,-0.0652,-0.0663,-0.0663,-0.0675,-0.0681,-0.0744,-0.0761,-0.0789,-0.0879,-0.0891,-0.093,-0.0896,-0.1113,-0.1119,-0.1126,-0.1057,-0.1062,-0.1065,0,0,0,0,0,-0.0659,-0.0671,-0.0677,-0.0679,-0.0671,-0.0653,-0.0648,-0.0655,-0.0674,-0.0678,-0.0736,-0.0761,-0.0932,-0.0883,-0.0897,-0.0939,-0.1109,-0.1118,-0.1125,-0.1055,-0.1061,-0.1065,0,0,0,0,0,0,-0.0665,-0.0675,-0.0682,-0.0697,-0.0687,-0.0661,-0.0666,-0.0667,-0.0703,-0.0739,-0.0775,-0.0796,-0.0902,-0.0935,-0.0882,-0.1041,-0.1037,-0.1048,-0.098,-0.0985,-0.0989,-0.0945,-0.09,0,0,0,0,0,-0.0671,-0.0697,-0.0682,-0.07,-0.0697,-0.0684,-0.068,-0.0692,-0.0717,-0.0734,-0.0777,-0.0856,-0.0934,-0.097,-0.1048,-0.1097,-0.1077,-0.1152,-0.1156,-0.1159,-0.1141,-0.111,-0.1106,-0.1155,-0.1155,-0.1155,0,0,-0.0673,-0.0691,-0.07,-0.0705,-0.0699,-0.0705,-0.0689,-0.0705,-0.074,-0.0754,-0.0829,-0.0879,-0.0961,-0.1039,-0.1089,-0.1069,-0.1143,-0.1169,-0.1169,-0.1149,-0.1117,-0.1111,-0.1106,-0.1161,-0.116,-0.1159,0,0,-0.0684,-0.0712,-0.0723,-0.0728,-0.0742,-0.0741,-0.0754,-0.0751,-0.0784,-0.0855,-0.0887,-0.0931,-0.1063,-0.1076,-0.1117,-0.1189,-0.1181,-0.126,-0.1212,-0.1183,-0.1176,-0.1169,-0.1141,-0.1133,-0.1239,-0.1239,-0.1239,0,-0.0687,-0.0709,-0.0719,-0.0736,-0.0751,-0.0766,-0.0778,-0.0808,-0.0842,-0.0885,-0.0909,-0.1011,-0.1077,-0.1102,-0.1143,-0.1189,-0.1175,-0.1168,-0.1176,-0.117,-0.1163,-0.1137,-0.1128,-0.1237,-0.1237,-0.1237,-0.1237,0,-0.0697,-0.0723,-0.0735,-0.0774,-0.0788,-0.0812,-0.085,-0.0892,-0.0952,-0.0991,-0.1055,-0.106,-0.1088,-0.1145,-0.1176,-0.1167,-0.1173,-0.1188,-0.1132,-0.1152,-0.1127,-0.1118,-0.1233,-0.1234,-0.1235,-0.1235,0,0,-0.0676,-0.0729,-0.0734,-0.0761,-0.082,-0.0831,-0.0913,-0.0973,-0.1061,-0.1065,-0.108,-0.1162,-0.1103,-0.1139,-0.1112,-0.1094,-0.1052,-0.112,-0.112,-0.1037,-0.0983,-0.0885,-0.0866,-0.1055,-0.1053,-0.1052,-0.098,0,-0.0677,-0.0703,-0.0745,-0.0797,-0.0808,-0.0878,-0.0966,-0.1048,-0.114,-0.1172,-0.1118,-0.1154,-0.1115,-0.1089,-0.1041,-0.1072,-0.1028,-0.107,-0.1026,-0.1024,-0.0886,-0.0852,-0.1047,-0.0973,-0.0971,-0.097,-0.0969,0,-0.0668,-0.0689,-0.0743,-0.0825,-0.0844,-0.0942,-0.1085,-0.1161,-0.1247,-0.1291,-0.1219,-0.1159,-0.1039,-0.1024,-0.0936,-0.0962,-0.0957,-0.0974,-0.0971,-0.0888,-0.0909,-0.0958,-0.0953,-0.0954,-0.0956,-0.0957,-0.0958,0,-0.0636,-0.0685,-0.0743,-0.0774,-0.0888,-0.1,-0.1095,-0.1256,-0.131,-0.1335,-0.1327,-0.1171,-0.1075,-0.0991,-0.0913,-0.094,-0.0852,-0.089,-0.078,-0.0774,-0.091,-0.0918,-0.0834,-0.0834,-0.0834,-0.0834,-0.0834,0,-0.0627,-0.0652,-0.0778,-0.0825,-0.0948,-0.1052,-0.1228,-0.132,-0.1388,-0.1377,-0.1351,-0.118,-0.1077,-0.095,-0.0894,-0.0763,-0.0798,-0.0743,-0.0732,-0.0893,-0.09,-0.0904,-0.0913,-0.0831,-0.0832,-0.0832,-0.0833,0,-0.0583,-0.0654,-0.0722,-0.0885,-0.096,-0.1078,-0.1257,-0.1323,-0.1469,-0.14,-0.134,-0.1203,-0.1037,-0.0944,-0.0839,-0.0758,-0.066,-0.0621,-0.0776,-0.0781,-0.0616,-0.0624,-0.0482,-0.0477,-0.0473,-0.047,-0.0467,0,-0.0573,-0.0609,-0.0764,-0.0826,-0.0942,-0.1113,-0.1193,-0.1342,-0.1332,-0.1319,-0.1173,-0.1064,-0.0922,-0.0693,-0.0645,-0.0532,-0.0533,-0.0504,-0.0565,-0.0567,-0.0572,-0.0586,-0.0598,-0.0461,-0.0461,-0.046,-0.0459,0,-0.0543,-0.062,-0.0676,-0.0798,-0.0923,-0.0959,-0.1068,-0.1035,-0.1092,-0.1185,-0.0944,-0.0818,-0.0671,-0.0527,-0.0499,-0.0398,-0.0524,-0.0465,-0.0474,-0.0531,-0.0541,-0.0553,-0.057,-0.0445,-0.0447,-0.0449,-0.0449,0,-0.0538,-0.056,-0.0663,-0.0746,-0.0833,-0.0796,-0.0862,-0.0795,-0.0809,-0.079,-0.0644,-0.0583,-0.0551,-0.045,-0.0344,-0.0312,-0.0317,-0.0313,-0.033,-0.0345,-0.0336,-0.0332,-0.0126,0,0,0,0,0,-0.0525,-0.0522,-0.058,-0.0645,-0.0683,-0.0737,-0.0735,-0.0761,-0.0775,-0.0563,-0.0632,-0.0449,-0.0337,-0.0285,-0.0225,-0.0304,-0.034,-0.0233,-0.035,-0.0373,-0.0388,-0.0393,0,0,0,0,0,0,-0.0515,-0.0573,-0.0557,-0.053,-0.0533,-0.055,-0.0542,-0.053,-0.0421,-0.044,-0.0364,-0.0419,-0.0311,-0.0371,-0.0216,-0.0215,-0.0272,-0.0228,-0.0225,-0.0364,-0.0378,-0.039,-0.04,0,0,0,0,0]},{"header":{"parameterUnit":"m.s-1","parameterCategory":2,"la1":30.2991,"la2":30.254,"lo1":-89.0895,"lo2":-89.0444,"dy":0.0017,"dx":0.0017,"nx":28,"ny":28,"refTime":"2023-07-21T09:00:00:Z","depth":"4","parameterNumber":3,"parameterNumberName":"V-component_of_CURRENTS"},"data":[0,0,0,0,0,0,0,0,0,0,0,0,0,0,0,0,0,0,0,0,0,0,0,0,0,0,0,0,0,0,0,0,0,0,0,0,0,0,0,0,0,0,0,0,0,0,0,0,0,0,0,0,0,0,0,0,0,0,0.0193,0.0193,0,0.0179,0.0179,0.0179,0.0229,0.023,0.0231,0.0233,0.0258,0.0257,0.0257,0,0,0,0,0,0,0,0,0,0,0,0,0,0.0253,0.0252,0.0193,0.0193,0.0192,0.0179,0.0179,0.0179,0.0229,0.023,0.0232,0.0233,0.0258,0.0257,0.0256,0,0,0,0,0,0,0,0,0,0,0,0,0,0.0235,0.0252,0.0193,0.0214,0.0215,0.0179,0.0179,0.0179,0.0228,0.023,0.0232,0.0234,0.0258,0.0257,0.0256,0.0215,0,0,0.0254,0.0254,0,0,0,0,0,0,0,0,0.0236,0.0233,0.0211,0.0212,0.0214,0.0205,0.0209,0.0192,0.0228,0.0226,0.0233,0.0235,0.024,0.0241,0.0238,0.0216,0.0217,0.0254,0.0254,0.0253,0.0253,0,0,0,0,0,0,0,0.0237,0.0233,0.019,0.021,0.0212,0.022,0.022,0.0206,0.0226,0.0226,0.0229,0.0223,0.0242,0.0238,0.0239,0.0217,0.0254,0.0253,0.0253,0.0253,0.0242,0.0242,0,0,0,0,0,0,0.0231,0.0234,0.0191,0.019,0.0226,0.0217,0.0217,0.0208,0.0225,0.0228,0.0221,0.0225,0.0239,0.024,0.024,0.0243,0.0253,0.0253,0.0252,0.0242,0.0242,0.0242,0,0,0,0,0,0,0.0232,0.0227,0.0191,0.021,0.0206,0.0214,0.0204,0.0207,0.0211,0.022,0.0226,0.0223,0.024,0.0241,0.0224,0.0242,0.0252,0.0252,0.0242,0.0242,0.0242,0.0215,0,0,0,0,0,0,0.0234,0.0228,0.0228,0.0209,0.0204,0.0178,0.0202,0.0205,0.0202,0.0207,0.0222,0.0227,0.0242,0.0224,0.0223,0.0242,0.0251,0.0242,0.0242,0.0242,0.0216,0.0215,0.0214,0,0,0,0,0,0.0236,0.0228,0.0228,0.0223,0.0202,0.0177,0.0175,0.0189,0.02,0.02,0.02,0.0226,0.0228,0.0222,0.0221,0.024,0.0241,0.0242,0.0242,0.0217,0.0215,0.0214,0,0,0,0,0,0,0.0251,0.0231,0.0231,0.0217,0.0201,0.0185,0.0182,0.0183,0.0181,0.0187,0.0201,0.0204,0.0219,0.0216,0.021,0.0241,0.0249,0.0249,0.0231,0.0229,0.0228,0.0246,0.025,0,0,0,0,0,0.0251,0.0242,0.022,0.0207,0.0198,0.0187,0.018,0.0183,0.0173,0.0176,0.018,0.0192,0.0215,0.0208,0.023,0.0207,0.0219,0.0229,0.0228,0.0226,0.0241,0.0226,0.0225,0.0244,0.0244,0.0244,0,0,0.0248,0.0238,0.0231,0.0209,0.0198,0.0164,0.0189,0.0173,0.0145,0.0175,0.0147,0.0191,0.0213,0.022,0.0225,0.0215,0.0232,0.0227,0.0226,0.0242,0.0227,0.0225,0.0223,0.0244,0.0244,0.0244,0,0,0.0229,0.023,0.0212,0.0191,0.017,0.0157,0.0149,0.013,0.013,0.0107,0.0143,0.0177,0.018,0.0204,0.0217,0.0209,0.0241,0.0236,0.022,0.0205,0.0203,0.0201,0.0231,0.0232,0.0215,0.0215,0.0215,0,0.023,0.0197,0.0202,0.017,0.0143,0.0147,0.0105,0.0094,0.0072,0.0073,0.01,0.0166,0.0176,0.0203,0.0215,0.0208,0.0222,0.0221,0.0202,0.02,0.0199,0.023,0.0231,0.0213,0.0213,0.0214,0.0214,0,0.0185,0.0157,0.0141,0.0099,0.0075,0.0042,0.0017,0.0005,0.0015,0.0021,0.0073,0.0116,0.0174,0.0182,0.0194,0.0212,0.0236,0.0215,0.0202,0.0195,0.0229,0.0231,0.0212,0.0212,0.0212,0.0213,0,0,0.019,0.0123,0.0121,0.0078,0.0033,0.0002,-0.0039,-0.0066,-0.0063,-0.0033,-0.0008,0.0054,0.0142,0.0165,0.0213,0.019,0.0195,0.02,0.02,0.0226,0.0201,0.0122,0.0117,0.0167,0.0167,0.0166,0.0233,0,0.0153,0.0084,0.0058,-0.0027,-0.0075,-0.0094,-0.0128,-0.0143,-0.0115,-0.0086,-0.001,0.0067,0.0115,0.0194,0.0179,0.0184,0.0198,0.0182,0.0209,0.0211,0.0135,0.0115,0.0166,0.0235,0.0236,0.0236,0.0236,0,0.0116,0.0073,-0.0002,-0.0092,-0.0112,-0.015,-0.0178,-0.0194,-0.0152,-0.0106,-0.0003,0.0079,0.0126,0.0168,0.0189,0.0179,0.0215,0.0211,0.0212,0.0151,0.0134,0.024,0.0241,0.024,0.024,0.024,0.0239,0,0.0118,0.0021,-0.0037,-0.007,-0.0154,-0.018,-0.0199,-0.0182,-0.0176,-0.0064,-0.0014,0.0069,0.0143,0.016,0.0193,0.0197,0.019,0.0183,0.0166,0.0164,0.023,0.023,0.0226,0.0226,0.0226,0.0226,0.0226,0,0.0081,0.0021,-0.0036,-0.0072,-0.014,-0.0168,-0.0182,-0.0172,-0.0116,-0.0094,0.0026,0.0063,0.014,0.0155,0.018,0.0167,0.0192,0.0173,0.0161,0.0221,0.022,0.0233,0.0233,0.0228,0.0228,0.0227,0.0227,0,0.0064,0.0032,-0.0053,-0.0122,-0.0144,-0.0173,-0.0197,-0.0188,-0.0109,-0.0067,-0.0016,0.0049,0.0061,0.0122,0.0139,0.0147,0.0141,0.0156,0.0246,0.0239,0.0144,0.0142,0.013,0.0127,0.0125,0.0123,0.0122,0,0.0033,0.0004,-0.0072,-0.0105,-0.0142,-0.0174,-0.0192,-0.0168,-0.0149,-0.0103,-0.0095,-0.0043,0.0002,-0.0007,0.002,0.0079,0.0096,0.0135,0.0123,0.0137,0.0128,0.0129,0.013,0.0118,0.0118,0.0117,0.0116,0,-0.0022,-0.0022,-0.0071,-0.0112,-0.0154,-0.0219,-0.0233,-0.0221,-0.0178,-0.0142,-0.0122,-0.0085,-0.0083,-0.0062,0.0012,0.0037,0.0103,0.0113,0.0118,0.0107,0.0123,0.0116,0.012,0.0109,0.011,0.0111,0.0111,0,-0.0046,-0.0081,-0.009,-0.013,-0.0175,-0.0218,-0.025,-0.0246,-0.023,-0.0158,-0.0191,-0.0141,-0.0112,-0.0088,-0.0071,-0.0022,-0.0013,0.0026,0.0036,0.0045,-0.0022,-0.0017,-0.0086,0,0,0,0,0,-0.0063,-0.0071,-0.011,-0.0154,-0.0184,-0.0199,-0.0255,-0.0271,-0.0246,-0.0223,-0.0182,-0.0171,-0.0132,-0.0145,-0.0107,-0.0139,-0.0024,-0.01,0.0022,0.0067,0.0076,0.0,0,0,0,0,0,0,-0.0084,-0.0099,-0.0099,-0.0119,-0.0129,-0.0186,-0.0208,-0.0225,-0.021,-0.0179,-0.0163,-0.0144,-0.0118,-0.011,-0.0084,-0.0084,-0.0004,-0.0081,-0.0081,0.0062,0.007,0.0077,0.0003,0,0,0,0,0]}]]